Time,TemperatureF,DewpointF,PressureIn,WindDirection,WindDirectionDegrees,WindSpeedMPH,WindSpeedGustMPH,Humidity,HourlyPrecipIn,Conditions,Clouds,dailyrainin,SolarRadiationWatts/m^2,SoftwareType,DateUTC
2013-07-06 00:00:00,72.0,56.0,-100.00,SSW,202,4.0,-999.0,57,-99.99,,,-99.99,0.000000,,2013-07-06 04:00:00,
2013-07-06 00:43:00,72.0,56.0,-100.00,SSW,202,4.0,-999.0,57,-99.99,,,-99.99,0.000000,,2013-07-06 04:43:00,
2013-07-06 00:53:00,72.0,56.0,-100.00,SSW,202,4.0,-999.0,57,-99.99,,,-99.99,0.000000,,2013-07-06 04:53:00,
2013-07-06 01:00:00,72.0,54.0,-100.00,SSW,202,6.0,-999.0,54,-99.99,,,-99.99,0.000000,,2013-07-06 05:00:00,
2013-07-06 01:34:00,72.0,54.0,-100.00,SSW,202,6.0,-999.0,54,-99.99,,,-99.99,0.000000,,2013-07-06 05:34:00,
2013-07-06 01:43:00,72.0,54.0,-100.00,SSW,202,6.0,-999.0,54,-99.99,,,-99.99,0.000000,,2013-07-06 05:43:00,
2013-07-06 01:53:00,72.0,54.0,-100.00,SSW,202,6.0,-999.0,54,-99.99,,,-99.99,0.000000,,2013-07-06 05:53:00,
2013-07-06 02:00:00,72.0,53.0,-100.00,SSW,202,5.0,-999.0,52,-99.99,,,-99.99,0.000000,,2013-07-06 06:00:00,
2013-07-06 02:43:00,72.0,53.0,-100.00,SSW,202,5.0,-999.0,52,-99.99,,,-99.99,0.000000,,2013-07-06 06:43:00,
2013-07-06 02:53:00,72.0,53.0,-100.00,SSW,202,5.0,-999.0,52,-99.99,,,-99.99,0.000000,,2013-07-06 06:53:00,
2013-07-06 03:00:00,71.0,52.0,-100.00,SSW,202,5.0,-999.0,50,-99.99,,,-99.99,0.000000,,2013-07-06 07:00:00,
2013-07-06 03:44:00,71.0,52.0,-100.00,SSW,202,5.0,-999.0,50,-99.99,,,-99.99,0.000000,,2013-07-06 07:44:00,
2013-07-06 03:52:00,71.0,52.0,-100.00,SSW,202,5.0,-999.0,50,-99.99,,,-99.99,0.000000,,2013-07-06 07:52:00,
2013-07-06 04:00:00,71.0,50.0,-100.00,SSW,202,5.0,-999.0,48,-99.99,,,-99.99,0.000000,,2013-07-06 08:00:00,
2013-07-06 04:43:00,71.0,50.0,-100.00,SSW,202,5.0,-999.0,48,-99.99,,,-99.99,0.000000,,2013-07-06 08:43:00,
2013-07-06 04:54:00,71.0,50.0,-100.00,SSW,202,5.0,-999.0,48,-99.99,,,-99.99,0.000000,,2013-07-06 08:54:00,
2013-07-06 05:00:00,70.0,57.0,-100.00,SSW,202,5.0,-999.0,63,-99.99,,,-99.99,0.000000,,2013-07-06 09:00:00,
2013-07-06 05:43:00,70.0,57.0,-100.00,SSW,202,5.0,-999.0,63,-99.99,,,-99.99,0.000000,,2013-07-06 09:43:00,
2013-07-06 05:53:00,70.0,57.0,-100.00,SSW,202,5.0,-999.0,63,-99.99,,,-99.99,0.000000,,2013-07-06 09:53:00,
2013-07-06 06:00:00,69.0,60.0,-100.00,SSW,202,5.0,-999.0,71,-99.99,,,-99.99,1.160000,,2013-07-06 10:00:00,
2013-07-06 06:43:00,69.0,60.0,-100.00,SSW,202,5.0,-999.0,71,-99.99,,,-99.99,1.160000,,2013-07-06 10:43:00,
2013-07-06 06:53:00,69.0,60.0,-100.00,SSW,202,5.0,-999.0,71,-99.99,,,-99.99,1.160000,,2013-07-06 10:53:00,
2013-07-06 07:00:00,69.0,59.0,-100.00,SSW,202,4.0,-999.0,72,-99.99,,,-99.99,17.400000,,2013-07-06 11:00:00,
2013-07-06 07:43:00,69.0,59.0,-100.00,SSW,202,4.0,-999.0,72,-99.99,,,-99.99,17.400000,,2013-07-06 11:43:00,
2013-07-06 07:53:00,69.0,59.0,-100.00,SSW,202,4.0,-999.0,72,-99.99,,,-99.99,17.400000,,2013-07-06 11:53:00,
2013-07-06 08:00:00,71.0,60.0,-100.00,SSW,202,4.0,-999.0,68,-99.99,,,-99.99,140.360001,,2013-07-06 12:00:00,
2013-07-06 08:43:00,71.0,60.0,-100.00,SSW,202,4.0,-999.0,68,-99.99,,,-99.99,140.360001,,2013-07-06 12:43:00,
2013-07-06 08:52:00,71.0,60.0,-100.00,SSW,202,4.0,-999.0,68,-99.99,,,-99.99,140.360001,,2013-07-06 12:52:00,
2013-07-06 09:00:00,74.0,61.0,-100.00,SSW,202,5.0,-999.0,63,-99.99,,,-99.99,306.239990,,2013-07-06 13:00:00,
2013-07-06 09:43:00,74.0,61.0,-100.00,SSW,202,5.0,-999.0,63,-99.99,,,-99.99,306.239990,,2013-07-06 13:43:00,
2013-07-06 09:52:00,74.0,61.0,-100.00,SSW,202,5.0,-999.0,63,-99.99,,,-99.99,306.239990,,2013-07-06 13:52:00,
2013-07-06 10:00:00,77.0,61.0,-100.00,SW,225,6.0,-999.0,58,-99.99,,,-99.99,475.600006,,2013-07-06 14:00:00,
2013-07-06 10:34:00,77.0,61.0,-100.00,SW,225,6.0,-999.0,58,-99.99,,,-99.99,475.600006,,2013-07-06 14:34:00,
2013-07-06 10:42:00,77.0,61.0,-100.00,SW,225,6.0,-999.0,58,-99.99,,,-99.99,475.600006,,2013-07-06 14:42:00,
2013-07-06 10:53:00,77.0,61.0,-100.00,SW,225,6.0,-999.0,58,-99.99,,,-99.99,475.600006,,2013-07-06 14:53:00,
2013-07-06 11:00:00,78.0,62.0,-100.00,WSW,247,6.0,-999.0,57,-99.99,,,-99.99,621.760010,,2013-07-06 15:00:00,
2013-07-06 11:43:00,78.0,62.0,-100.00,WSW,247,6.0,-999.0,57,-99.99,,,-99.99,621.760010,,2013-07-06 15:43:00,
2013-07-06 11:53:00,78.0,62.0,-100.00,WSW,247,6.0,-999.0,57,-99.99,,,-99.99,621.760010,,2013-07-06 15:53:00,
2013-07-06 12:00:00,78.0,62.0,-100.00,WSW,247,6.0,-999.0,57,-99.99,,,-99.99,763.280029,,2013-07-06 16:00:00,
2013-07-06 13:00:00,80.0,59.0,-100.00,WSW,247,8.0,-999.0,48,-99.99,,,-99.99,859.559998,,2013-07-06 17:00:00,
2013-07-06 14:00:00,79.0,59.0,-100.00,WSW,247,7.0,-999.0,50,-99.99,,,-99.99,895.520020,,2013-07-06 18:00:00,
2013-07-06 15:00:00,79.0,59.0,-100.00,West,270,7.0,-999.0,50,-99.99,,,-99.99,883.919983,,2013-07-06 19:00:00,
2013-07-06 16:00:00,76.0,61.0,-100.00,SW,225,7.0,-999.0,58,-99.99,,,-99.99,822.440002,,2013-07-06 20:00:00,
2013-07-06 16:52:00,76.0,61.0,-100.00,SW,225,7.0,-999.0,58,-99.99,,,-99.99,822.440002,,2013-07-06 20:52:00,
2013-07-06 17:00:00,76.0,61.0,-100.00,WSW,247,7.0,-999.0,58,-99.99,,,-99.99,721.520020,,2013-07-06 21:00:00,
2013-07-06 18:00:00,78.0,60.0,-100.00,WSW,247,6.0,-999.0,54,-99.99,,,-99.99,573.039978,,2013-07-06 22:00:00,
2013-07-06 19:00:00,75.0,60.0,-100.00,WSW,247,6.0,-999.0,59,-99.99,,,-99.99,349.160004,,2013-07-06 23:00:00,
2013-07-06 21:50:00,72.0,60.0,-100.00,WSW,247,4.0,-999.0,65,-99.99,,,-99.99,61.480000,,2013-07-07 01:50:00,
2013-07-06 22:00:00,70.0,60.0,-100.00,WSW,247,4.0,-999.0,70,-99.99,,,-99.99,6.960000,,2013-07-07 02:00:00,
2013-07-06 23:00:00,70.0,60.0,-100.00,SW,225,2.0,-999.0,71,-99.99,,,-99.99,0.000000,,2013-07-07 03:00:00,